Location: Hill Town
(35.7703°N, 87.1321°W)
Time: 07:59:44
(UTC-05:00)

N. Korean satellite - Visible Passes

Search period start: 16 October 2018 00:00
Search period end: 26 October 2018 00:00
Orbit: 459 x 510 km, 97.2° (Epoch: 15 October)

Date Brightness Start Highest point End Pass type
(mag) Time Alt. Az. Time Alt. Az. Time Alt. Az.
16 Oct 7.4 18:40:31 10° S 18:44:08 58° W 18:47:49 10° NNW visible
17 Oct 10.3 06:11:42 10° ENE 06:13:37 14° E 06:15:31 10° SE visible
18 Oct 10.1 19:26:48 10° SW 19:28:55 15° W 19:31:04 10° WNW visible
19 Oct 8.9 19:01:07 10° SSW 19:04:23 30° W 19:07:42 10° NW visible
20 Oct 9.4 06:30:53 10° NE 06:33:55 25° E 06:36:54 10° SSE visible
20 Oct 7.1 18:36:15 10° S 18:39:55 66° W 18:43:39 10° NNW visible
21 Oct 10.4 06:07:54 10° ENE 06:09:20 12° E 06:10:46 10° ESE visible
22 Oct 10.0 19:22:13 10° SW 19:24:39 16° W 19:27:05 10° NW visible
23 Oct 8.6 18:56:42 10° SSW 19:00:06 33° W 19:03:32 10° NNW visible
24 Oct 9.6 06:26:45 10° NE 06:29:36 22° E 06:32:23 10° SSE visible
24 Oct 6.9 18:31:56 10° S 18:35:38 76° W 18:39:23 10° NNW visible
25 Oct 10.6 06:04:25 10° E 06:04:59 10° E 06:05:33 10° E visible
